Location: St. Louis
(38.6270°N, 90.1994°W)
Time: 12:05:46
(UTC-06:00)

Altair - Pass Details

Date: 02 December 2021
Orbit: 1501 x 1683 km, 47.2° (Epoch: 25 January)

Event Time Altitude Azimuth Distance (km) Brightness Sun altitude
Rises 18:04:42 0° 272° (W) 4,733 11.5 -16.2°
Reaches altitude 10° 18:07:57 10° 277° (W) 3,726 10.6 -16.9°
Maximum altitude 18:17:01 52° 353° (N) 1,835 7.8 -18.6°
Enters shadow 18:22:23 25° 56° (ENE) 2,646 8.2 -19.6°
Drops below altitude 10° 18:25:55 10° 68° (ENE) 3,653 - -20.3°
Sets 18:29:05 0° 73° (ENE) 4,634 - -20.9°
